Wind_Speed
9 9 10 11 12 15 16 18 19 19 17 16 15 14 13 11 10 9 9 9 7 7 7 7 7 8 9 10 10 11 11 11 10 10 10 9 9 8 7 6 6 6 5 6 6 6 6 6 6
7 7 8 9 11 13 16 18 19 18 17 16 16 15 13 11 10 9 8 8 7 6 7 7 7 8 8 9 10 10 10 10 10 9 9 8 8 7 7 6 6 6 5 6 6 5 5 6 6
5 6 7 8 9 12 15 17 18 17 16 16 16 15 13 12 10 9 8 7 6 6 6 7 8 8 8 9 10 10 10 9 9 8 8 8 7 7 7 7 7 7 6 6 5 5 5 5 6
4 4 6 7 9 11 14 16 17 17 16 15 15 14 13 11 9 8 8 7 5 5 6 7 8 8 8 9 9 9 9 9 9 8 7 7 7 6 6 6 6 7 7 6 6 6 6 6 6
2 3 5 6 8 10 12 15 16 17 16 15 14 13 12 11 9 8 8 7 5 5 6 7 8 8 8 9 9 9 9 8 7 7 7 7 6 6 6 6 7 7 6 6 6 6 6 6 6
0 2 3 5 6 8 11 14 15 16 15 15 14 12 11 10 9 8 8 7 6 5 6 7 7 7 8 8 8 8 8 8 7 7 6 6 6 5 6 6 6 6 6 6 6 6 6 5 6
2 1 1 3 5 6 9 12 14 14 14 14 13 12 11 10 8 7 7 7 7 6 6 6 7 7 7 7 7 7 7 7 7 6 6 6 5 5 5 6 6 5 5 6 6 6 6 5 5
4 3 2 2 3 5 6 9 11 12 13 12 12 12 11 10 8 7 7 7 7 6 6 6 6 6 6 6 6 7 6 6 6 6 6 5 5 5 5 5 5 5 5 5 5 5 6 5 5
6 6 4 3 3 4 5 7 9 10 11 11 12 12 11 9 8 7 6 6 6 5 5 5 5 5 6 5 5 5 6 6 5 5 5 5 5 5 4 4 4 4 4 4 4 5 5 5 5
9 8 6 5 4 4 4 6 7 9 10 10 11 11 11 9 8 7 6 6 6 5 4 4 4 4 4 4 4 5 5 5 5 5 5 4 4 4 3 3 3 3 3 3 3 4 5 5 4
11 10 8 7 6 5 5 5 6 7 8 9 10 10 10 8 7 7 6 6 5 5 4 4 4 4 4 4 3 4 4 4 4 4 3 3 4 4 3 3 3 2 3 2 2 3 3 4 3
12 11 10 9 7 6 6 4 5 6 7 8 9 9 9 8 7 7 6 6 6 5 4 3 2 3 3 3 3 3 3 3 3 2 3 2 3 3 3 2 2 2 2 2 2 2 2 2 2
14 13 12 10 8 7 6 4 4 5 5 7 8 9 8 8 7 7 7 6 6 5 4 2 1 1 2 2 3 2 2 2 2 2 1 1 2 2 2 2 1 1 1 1 1 1 1 1 1
16 15 13 12 11 9 7 6 4 4 4 5 6 7 7 7 7 7 6 5 5 5 4 2 1 1 1 2 2 2 2 2 2 2 1 2 2 2 1 1 1 1 1 1 1 1 1 1 0
18 17 16 15 14 12 10 7 5 3 3 4 5 6 7 6 6 6 6 6 5 5 4 2 1 1 2 2 2 3 3 2 2 2 2 2 2 2 2 2 2 2 2 1 1 1 2 1 1
20 19 18 17 16 15 12 9 7 4 4 4 4 5 6 5 5 6 6 6 6 5 4 3 3 2 2 3 4 3 3 3 3 2 2 2 2 2 3 3 3 4 3 3 2 2 3 3 3
22 21 20 19 19 17 15 12 10 7 5 4 4 4 5 5 6 6 7 7 7 6 6 5 4 3 3 3 4 5 4 4 4 4 3 4 3 3 3 3 4 4 4 4 3 3 3 4 3
23 22 22 22 21 20 18 15 14 11 8 6 5 5 4 5 7 7 7 7 8 8 7 5 5 4 4 4 5 6 6 6 6 5 5 5 5 4 4 4 5 5 5 5 5 5 5 5 5
25 24 23 23 23 22 21 19 16 14 11 8 7 6 5 5 6 7 7 8 9 9 8 6 6 5 4 5 6 7 7 8 8 7 7 6 6 6 6 5 6 7 7 6 6 6 6 6 6
27 25 24 25 25 25 23 21 19 16 13 10 8 7 6 6 6 6 7 8 9 10 9 8 6 6 5 6 7 8 8 8 9 9 9 8 7 7 8 7 7 8 8 8 7 7 7 7 8
28 27 26 26 27 26 24 23 21 17 15 12 10 8 7 7 7 7 8 9 10 10 9 8 7 6 6 7 7 8 9 9 9 9 9 9 9 9 8 8 7 8 9 9 9 9 8 8 9
28 27 28 28 28 28 26 25 21 19 17 14 12 10 10 9 9 8 8 9 10 10 10 10 8 8 7 7 7 8 9 9 9 9 10 10 10 9 9 10 9 9 10 10 10 10 10 10 11
29 29 30 30 30 30 28 27 23 21 18 15 13 12 11 11 10 10 10 11 11 10 11 12 11 10 10 8 8 8 9 9 9 9 10 10 10 10 11 11 11 10 11 12 12 12 12 11 12
31 31 31 31 31 31 29 28 25 21 18 16 14 13 12 12 12 11 11 12 12 12 12 13 11 10 10 9 8 8 8 9 9 10 11 11 11 12 12 12 12 12 12 13 13 13 13 13 13
33 32 32 33 32 31 29 29 25 21 19 17 15 14 13 13 12 11 13 13 13 13 13 13 12 11 10 10 10 10 9 10 11 11 12 12 12 12 13 13 12 13 13 13 13 14 14 15 15
33 33 33 33 32 30 28 29 25 21 19 18 18 16 15 14 12 12 13 13 13 13 13 13 12 12 11 11 11 11 10 11 11 12 13 12 13 13 13 13 13 12 13 13 13 14 14 15 16
32 33 32 33 33 31 30 28 25 21 20 19 19 19 17 15 13 13 13 13 13 13 13 13 13 12 12 12 11 10 10 11 12 13 13 13 13 13 13 13 13 13 13 13 14 14 15 16 17
33 32 33 33 33 32 30 28 25 22 21 21 20 19 17 16 14 14 14 14 13 13 13 13 12 12 12 12 12 12 12 12 13 13 13 13 13 13 12 12 13 14 14 14 14 15 16 16 17
33 33 33 33 33 32 30 27 24 22 21 20 19 18 17 15 15 15 14 14 14 13 14 13 12 12 11 11 12 13 14 13 13 13 14 14 14 14 14 14 15 15 14 14 14 15 15 16 17
33 33 33 33 32 31 30 27 24 22 21 20 19 17 17 16 16 15 15 14 15 14 14 13 13 13 13 13 13 14 14 13 13 13 14 15 15 15 15 15 15 15 16 16 15 15 16 16 17
Wind_Direction
76 75 72 68 62 59 55 53 54 53 53 56 58 58 62 68 72 75 76 78 80 87 93 93 92 90 89 88 88 86 84 85 86 87 85 85 84 85 89 92 93 93 93 94 90 88 93 91 91
75 70 68 64 62 59 56 59 56 53 51 52 54 54 54 60 69 75 76 77 78 83 91 94 92 89 88 89 89 88 85 83 81 81 80 82 84 88 88 88 92 92 88 90 84 87 87 85 88
76 66 60 62 65 61 60 60 58 55 51 50 52 52 52 54 62 70 75 78 79 83 88 92 91 88 88 91 89 87 86 82 79 76 75 75 80 86 87 89 90 85 84 81 79 84 82 84 80
70 62 62 63 64 62 63 62 62 56 51 48 51 52 50 49 57 68 73 77 82 91 90 91 89 89 88 89 90 89 86 83 78 74 73 75 76 79 82 86 87 82 79 78 82 82 83 83 84
63 52 53 62 64 63 64 65 63 55 49 46 48 52 49 48 53 65 73 76 82 93 93 92 93 90 90 87 89 89 85 82 77 72 72 75 72 72 74 84 87 83 82 79 79 81 83 84 86
72 30 44 50 54 58 65 65 62 51 46 43 43 48 49 48 52 61 70 76 79 87 92 94 94 92 90 89 88 88 86 84 81 76 72 72 75 69 75 80 80 79 76 75 82 84 84 84 89
236 283 360 22 31 45 60 61 58 49 41 39 41 44 46 44 46 56 67 72 75 80 84 90 93 93 92 91 89 87 87 87 88 86 81 80 78 79 76 79 78 75 71 74 83 84 85 85 89
241 255 278 342 12 33 54 56 54 48 42 39 38 39 39 40 39 48 58 65 68 71 75 85 92 97 99 97 93 88 89 93 96 94 90 84 79 77 76 68 73 75 76 79 85 84 88 91 94
239 243 260 294 331 8 36 47 50 46 38 36 35 33 32 33 34 41 50 57 60 61 73 84 94 104 103 100 96 94 92 95 100 99 97 92 85 79 76 73 76 79 81 82 88 87 89 93 94
240 243 250 272 306 346 15 30 43 44 36 34 34 32 30 31 32 37 45 52 56 57 73 88 96 108 110 107 104 103 97 99 104 106 103 100 92 87 87 91 84 85 84 84 87 88 94 92 92
240 241 244 263 286 313 341 360 28 39 35 29 29 30 30 30 29 30 34 39 46 51 67 91 101 115 123 123 121 115 110 108 114 120 121 115 93 84 84 86 84 87 92 87 84 87 97 100 95
234 241 247 260 273 297 322 342 12 27 29 27 24 27 28 26 22 21 24 29 36 42 55 82 102 120 132 141 141 131 122 117 121 143 145 112 92 94 95 96 93 105 94 91 100 104 96 103 99
230 237 245 254 263 281 300 319 349 12 21 26 24 24 24 21 17 15 16 22 26 31 43 68 90 126 139 153 161 151 141 134 133 143 140 124 119 111 109 116 118 137 118 101 107 122 112 99 84
230 233 239 245 257 269 282 300 317 349 6 21 22 20 19 15 11 5 6 12 13 14 22 41 85 167 183 179 183 180 171 161 161 171 181 175 169 176 163 170 181 171 173 173 151 181 187 173 314
228 230 236 243 252 262 272 284 293 308 341 358 2 5 9 6 1 354 355 1 360 359 2 7 0 267 228 218 211 202 197 188 179 183 183 176 185 212 231 239 235 219 213 229 238 224 207 208 233
226 228 233 242 249 256 262 269 273 270 302 322 334 347 352 354 346 346 347 350 349 341 337 335 319 277 247 229 220 222 218 211 206 209 212 217 226 239 251 262 261 242 239 243 246 245 224 221 232
225 228 232 239 247 254 260 263 264 262 277 296 308 329 340 338 334 335 339 340 336 328 322 319 318 288 247 232 228 229 232 223 221 229 241 247 248 254 257 266 263 250 248 243 244 254 241 241 236
228 230 232 237 244 250 257 257 256 256 261 268 277 295 312 321 321 318 326 330 327 324 319 315 312 300 255 241 240 241 239 229 227 232 247 249 250 257 259 269 261 256 256 252 248 259 251 248 244
228 228 230 235 242 247 251 252 255 256 257 262 272 286 292 301 311 307 307 315 319 317 321 313 301 297 264 248 245 248 247 233 229 231 241 250 252 260 266 262 258 255 256 254 252 259 257 251 249
226 227 228 232 238 243 247 250 255 257 257 259 269 279 295 306 303 300 302 307 310 311 313 314 302 300 284 270 258 247 247 241 240 240 243 249 257 266 271 269 262 257 257 257 258 256 256 253 252
226 226 227 230 236 241 245 249 252 254 251 251 259 269 281 293 298 287 296 301 304 303 299 298 297 297 289 277 263 252 247 246 246 248 248 251 256 265 272 271 268 260 257 258 259 256 253 255 254
226 226 227 230 233 238 244 246 249 254 254 254 259 266 276 283 286 284 290 293 302 301 289 293 286 279 277 277 265 262 253 246 245 247 249 252 256 261 266 269 271 262 257 258 259 256 256 256 256
225 226 227 229 233 238 244 247 249 251 254 257 261 265 271 275 274 273 276 281 288 292 289 284 280 272 270 275 270 266 258 252 249 248 250 253 258 264 267 269 270 267 261 258 257 257 256 257 257
223 226 228 231 235 239 242 247 249 251 254 257 259 260 266 271 270 270 270 278 281 282 284 287 281 276 274 273 271 266 260 257 254 253 254 258 262 265 266 267 267 267 263 259 258 255 255 257 257
223 225 228 231 235 240 242 246 249 250 253 256 257 258 263 267 268 270 273 275 278 278 279 284 278 275 275 269 268 262 258 256 253 253 258 262 266 268 266 267 267 265 263 265 262 259 257 257 258
225 227 230 234 237 241 243 245 249 249 252 255 257 260 262 263 265 268 273 276 277 276 279 282 278 275 273 268 266 263 262 264 264 259 260 263 268 271 270 269 271 271 270 268 265 262 259 261 262
224 226 229 233 238 241 243 246 247 248 251 256 258 259 259 259 261 267 267 271 273 271 275 279 282 276 273 267 267 262 262 266 266 264 262 264 267 272 274 272 274 272 272 268 266 263 262 265 265
222 226 229 233 237 241 244 245 246 248 251 258 259 258 256 255 259 265 266 268 270 270 271 274 280 278 273 266 261 259 260 263 264 265 265 265 267 271 274 272 272 273 271 271 268 266 267 268 269
224 226 229 233 237 241 245 246 248 249 251 254 255 252 252 253 258 263 264 264 266 269 269 267 273 276 277 271 267 264 262 262 262 264 266 266 267 270 272 273 274 273 272 271 271 268 269 270 271
224 227 230 233 238 242 245 246 246 247 248 250 251 251 252 256 258 262 263 264 264 263 265 266 269 273 272 272 271 267 263 262 264 265 265 265 268 270 273 276 277 274 271 270 271 270 268 269 272
Height
5890 5890 5891 5892 5892 5890 5888 5887 5885 5885 5885 5884 5883 5883 5883 5883 5884 5886 5884 5883 5884 5885 5885 5885 5885 5885 5886 5886 5886 5887 5888 5889 5890 5890 5891 5892 5892 5893 5893 5894 5894 5895 5895 5895 5895 5896 5896 5896 5896
5892 5892 5893 5894 5893 5892 5891 5889 5888 5887 5887 5886 5885 5885 5885 5884 5885 5885 5884 5885 5886 5886 5887 5887 5887 5887 5888 5888 5888 5889 5890 5891 5891 5892 5893 5893 5894 5894 5895 5895 5896 5896 5896 5897 5897 5897 5897 5897 5897
5893 5894 5895 5895 5894 5894 5893 5891 5890 5889 5888 5888 5887 5887 5887 5886 5886 5886 5886 5887 5888 5888 5888 5888 5889 5889 5889 5890 5890 5891 5891 5892 5893 5894 5894 5895 5895 5896 5896 5896 5897 5897 5898 5898 5898 5898 5898 5898 5898
5894 5896 5896 5896 5895 5895 5894 5893 5892 5891 5890 5890 5889 5889 5889 5888 5888 5888 5888 5888 5889 5890 5890 5890 5890 5890 5891 5891 5891 5892 5893 5893 5894 5895 5895 5896 5897 5897 5897 5898 5898 5898 5899 5899 5899 5899 5899 5899 5900
5895 5896 5896 5896 5897 5897 5896 5894 5894 5893 5892 5892 5892 5891 5890 5890 5890 5889 5889 5890 5890 5890 5890 5890 5891 5891 5892 5892 5893 5893 5894 5895 5895 5896 5897 5897 5898 5898 5899 5899 5899 5900 5900 5900 5900 5900 5900 5900 5901
5896 5896 5897 5897 5897 5898 5897 5896 5895 5894 5894 5894 5894 5893 5892 5892 5892 5891 5891 5891 5891 5891 5891 5891 5892 5892 5893 5893 5894 5894 5895 5896 5896 5897 5898 5899 5899 5899 5900 5900 5900 5901 5901 5901 5901 5901 5902 5902 5902
5896 5896 5896 5897 5898 5898 5898 5897 5896 5896 5896 5896 5895 5895 5894 5894 5894 5893 5893 5892 5892 5892 5892 5892 5892 5893 5894 5894 5895 5895 5896 5896 5897 5898 5899 5900 5900 5900 5901 5901 5901 5902 5902 5902 5902 5902 5902 5903 5903
5895 5897 5896 5897 5898 5899 5899 5898 5898 5898 5897 5897 5897 5896 5895 5895 5895 5894 5894 5893 5893 5893 5893 5893 5893 5894 5895 5895 5896 5896 5896 5897 5898 5899 5899 5900 5901 5901 5901 5902 5902 5902 5903 5903 5903 5903 5903 5903 5904
5895 5897 5896 5897 5898 5899 5899 5899 5899 5899 5898 5898 5897 5897 5896 5896 5896 5895 5895 5894 5894 5894 5894 5894 5894 5895 5895 5896 5896 5897 5897 5898 5898 5899 5900 5901 5901 5902 5902 5903 5903 5903 5903 5903 5903 5904 5904 5904 5905
5894 5896 5897 5897 5898 5899 5899 5899 5899 5899 5899 5898 5898 5897 5897 5897 5897 5896 5896 5895 5895 5895 5894 5894 5895 5895 5896 5896 5897 5897 5898 5898 5899 5899 5900 5901 5901 5902 5903 5903 5903 5904 5904 5904 5904 5904 5905 5905 5905
5893 5894 5896 5897 5897 5898 5899 5899 5899 5899 5900 5900 5899 5898 5898 5897 5898 5897 5897 5896 5896 5895 5895 5895 5895 5896 5896 5897 5897 5898 5899 5899 5899 5900 5900 5901 5902 5902 5903 5904 5904 5904 5904 5905 5905 5905 5906 5906 5906
5892 5893 5894 5896 5897 5898 5899 5899 5900 5900 5901 5900 5900 5899 5899 5898 5898 5898 5898 5897 5896 5896 5896 5896 5896 5896 5897 5897 5898 5898 5899 5899 5900 5900 5900 5901 5902 5903 5903 5904 5904 5905 5905 5905 5905 5906 5906 5906 5907
5890 5892 5893 5895 5896 5897 5898 5899 5900 5900 5901 5900 5900 5900 5900 5899 5899 5899 5898 5898 5897 5897 5896 5896 5896 5897 5897 5897 5898 5898 5899 5899 5900 5900 5901 5901 5902 5903 5903 5904 5904 5905 5905 5905 5906 5906 5906 5907 5907
5889 5890 5892 5894 5895 5896 5897 5898 5899 5900 5900 5901 5900 5900 5900 5900 5900 5899 5899 5898 5898 5897 5897 5896 5897 5897 5897 5898 5898 5898 5899 5899 5900 5900 5901 5901 5902 5902 5903 5904 5904 5905 5905 5905 5906 5906 5906 5907 5907
5887 5889 5891 5892 5893 5894 5896 5898 5898 5899 5900 5901 5901 5901 5900 5900 5900 5899 5899 5898 5898 5897 5897 5897 5896 5897 5897 5897 5898 5898 5899 5899 5900 5900 5901 5901 5902 5902 5903 5903 5904 5904 5904 5905 5905 5906 5906 5906 5907
5885 5887 5889 5890 5891 5892 5896 5897 5898 5898 5899 5900 5900 5901 5900 5900 5900 5899 5899 5898 5898 5897 5897 5896 5896 5896 5896 5897 5897 5898 5898 5899 5899 5900 5901 5901 5901 5902 5902 5903 5903 5903 5904 5904 5905 5905 5905 5906 5906
5882 5885 5887 5888 5889 5890 5893 5895 5896 5898 5899 5899 5900 5900 5900 5900 5900 5899 5899 5898 5897 5897 5896 5896 5895 5896 5896 5896 5897 5897 5897 5898 5899 5900 5900 5901 5901 5901 5901 5902 5902 5903 5903 5904 5904 5904 5905 5905 5906
5879 5882 5884 5886 5887 5888 5890 5893 5894 5896 5897 5898 5899 5899 5899 5899 5899 5898 5898 5897 5897 5896 5895 5895 5894 5894 5894 5895 5896 5896 5897 5897 5898 5898 5899 5900 5900 5900 5900 5901 5901 5901 5902 5902 5903 5903 5903 5904 5905
5876 5879 5881 5883 5884 5886 5888 5890 5892 5894 5895 5897 5897 5897 5897 5897 5897 5897 5897 5896 5896 5895 5895 5894 5893 5893 5893 5894 5894 5895 5895 5896 5896 5897 5898 5898 5899 5899 5899 5899 5900 5900 5900 5901 5901 5902 5902 5903 5903
5871 5875 5878 5879 5880 5882 5885 5887 5889 5891 5893 5895 5896 5896 5896 5896 5896 5896 5896 5896 5895 5895 5894 5893 5892 5892 5892 5892 5893 5893 5894 5894 5895 5895 5896 5897 5897 5897 5897 5897 5898 5898 5899 5899 5900 5900 5901 5901 5902
5867 5871 5874 5875 5877 5879 5882 5884 5886 5888 5890 5892 5893 5894 5894 5894 5894 5894 5894 5894 5894 5893 5893 5893 5892 5891 5891 5891 5891 5891 5892 5892 5893 5894 5894 5895 5895 5895 5895 5895 5895 5896 5897 5897 5898 5899 5899 5900 5900
5863 5867 5869 5871 5873 5875 5878 5880 5884 5885 5887 5890 5891 5892 5892 5892 5892 5892 5892 5892 5892 5891 5891 5891 5890 5890 5889 5889 5889 5889 5889 5890 5890 5891 5892 5893 5893 5893 5893 5893 5893 5894 5894 5895 5896 5896 5897 5898 5898
5858 5861 5864 5866 5868 5871 5874 5877 5881 5882 5884 5887 5888 5889 5889 5889 5890 5890 5890 5890 5889 5889 5889 5888 5888 5887 5887 5887 5887 5887 5887 5888 5888 5890 5890 5891 5891 5891 5891 5891 5891 5891 5892 5892 5893 5893 5894 5895 5895
5852 5856 5859 5861 5864 5867 5870 5873 5876 5879 5882 5884 5885 5886 5886 5886 5887 5887 5887 5887 5887 5886 5886 5885 5884 5884 5884 5885 5885 5886 5886 5886 5887 5888 5888 5889 5889 5889 5889 5889 5888 5888 5888 5889 5889 5890 5891 5892 5893
5846 5851 5854 5856 5858 5862 5867 5868 5873 5876 5878 5880 5881 5882 5883 5883 5884 5884 5884 5884 5884 5883 5883 5882 5882 5882 5881 5882 5882 5883 5884 5884 5885 5886 5886 5886 5886 5886 5886 5886 5885 5885 5885 5885 5886 5887 5888 5889 5889
5842 5846 5850 5853 5855 5859 5862 5864 5869 5873 5874 5876 5877 5879 5879 5880 5880 5881 5881 5881 5880 5880 5880 5879 5878 5879 5878 5878 5879 5880 5881 5882 5882 5883 5883 5883 5883 5883 5883 5883 5882 5882 5882 5882 5883 5883 5884 5885 5885
5836 5840 5845 5848 5851 5854 5857 5861 5865 5868 5870 5872 5874 5875 5876 5877 5877 5878 5878 5877 5877 5877 5877 5877 5876 5876 5875 5874 5875 5877 5879 5879 5879 5880 5880 5880 5880 5880 5880 5880 5879 5879 5879 5879 5880 5880 5880 5881 5881
5832 5836 5840 5843 5846 5849 5853 5856 5861 5864 5866 5868 5869 5871 5872 5873 5874 5875 5874 5874 5874 5874 5874 5874 5873 5873 5873 5872 5874 5875 5876 5876 5876 5877 5877 5878 5878 5877 5877 5877 5876 5876 5876 5876 5876 5876 5876 5876 5877
5827 5831 5834 5838 5842 5845 5848 5855 5857 5860 5862 5864 5865 5867 5868 5870 5871 5871 5871 5871 5871 5871 5871 5871 5871 5871 5871 5871 5872 5872 5872 5873 5873 5873 5874 5874 5874 5874 5874 5874 5873 5873 5873 5873 5872 5872 5873 5873 5872
5822 5826 5830 5834 5837 5840 5844 5852 5853 5856 5857 5860 5861 5863 5864 5865 5866 5867 5868 5868 5868 5868 5868 5868 5869 5869 5869 5868 5868 5869 5869 5870 5870 5870 5870 5871 5871 5870 5870 5870 5870 5869 5869 5869 5869 5869 5869 5869 5868